North Adams, MA

3:43 AM EST on February 19, 2018 (GMT -0500)
Harriman And West

Weather History for KAQW - February, 2013

Change the Weather History Date:

Saturday, February 9, 2013

  Actual Average Record
Temperature  
Mean Temperature 14 °F -  
Max Temperature 19 °F 32 °F 53 °F (2001)
Min Temperature 10 °F 14 °F 3 °F (2018)
Degree Days  
Heating Degree Days 50    
Moisture  
Dew Point 3 °F    
Average Humidity 60    
Maximum Humidity 86    
Minimum Humidity 34    
Precipitation  
Precipitation 0.33 in - - ()
Sea Level Pressure  
Sea Level Pressure 30.02 in    
Wind  
Wind Speed 10 mph (West)    
Max Wind Speed 21 mph    
Max Gust Speed 30 mph    
Visibility 6 miles    
Events Fog , Snow    
Averages and records for this station are not official NWS values.
T = Trace of Precipitation, MM = Missing Value Source: NWS Daily Summary

Daily Weather History Graph

Daily Weather History Graph

Search for Another Location

Airport or City:

Trip Planner

Search our weather history database for the weather conditions in past years. The results will help you decide how hot, cold, wet, or windy it might be!

Date:

Astronomy

Feb. 09, 2013 Rise Set
Actual Time 6:57 AM EST 5:16 PM EST
Civil Twilight 6:28 AM EST 5:46 PM EST
Nautical Twilight 5:54 AM EST 6:19 PM EST
Astronomical Twilight 5:21 AM EST 6:52 PM EST
Moon 6:07 AM EST (2/9) 4:57 PM EST (2/9)
Length of Visible Light 11h 18m
Length of Day
10h 19m
Waning Crescent, 0% of the Moon is Illuminated
Feb 9
Waning Crescent
Feb 10
New
Feb 17
First Quarter
Feb 25
Full
Mar 4
Last Quarter

Hourly Weather History & Observations

Time (EST) Temp. Windchill Dew Point Humidity Pressure Visibility Wind Dir Wind Speed Gust Speed Precip Events Conditions
12:52 AM 19.9 °F 13.4 °F 16.0 °F 85% 29.84 in 0.2 mi West 4.6 mph - 0.13 in Fog , Snow Snow
1:41 AM 19.4 °F 10.4 °F 15.8 °F 86% 29.80 in 0.5 mi WSW 6.9 mph - 0.08 in Fog , Snow Snow
1:52 AM 19.9 °F 11.1 °F 16.0 °F 85% 29.83 in 0.5 mi WSW 6.9 mph - 0.09 in Fog , Snow Snow
2:52 AM 19.9 °F 7.9 °F 15.1 °F 81% 29.84 in 0.5 mi West 11.5 mph 18.4 mph 0.04 in Snow Snow
3:47 AM 17.6 °F 4.3 °F 12.2 °F 79% 29.81 in 0.2 mi West 12.7 mph 23.0 mph 0.03 in Snow Heavy Snow
3:52 AM 18.0 °F 6.1 °F 12.0 °F 78% 29.84 in 0.2 mi West 10.4 mph 23.0 mph 0.04 in Snow Heavy Snow
4:00 AM 17.6 °F 5.7 °F 12.2 °F 79% 29.81 in 0.5 mi West 10.4 mph 20.7 mph 0.00 in Snow Snow
4:52 AM 17.1 °F 4.3 °F 10.9 °F 77% 29.86 in 0.5 mi West 11.5 mph 18.4 mph 0.02 in Snow Snow
5:40 AM 15.8 °F 2.7 °F 8.6 °F 73% 29.84 in 1.0 mi WNW 11.5 mph 23.0 mph 0.00 in Snow Light Snow
5:52 AM 14.0 °F 2.0 °F 7.0 °F 74% 29.89 in 1.2 mi WNW 9.2 mph 23.0 mph 0.01 in Snow Light Snow
6:19 AM 14.0 °F -0.8 °F 6.8 °F 73% 29.86 in 1.8 mi WNW 13.8 mph 24.2 mph 0.00 in Snow Light Snow
6:34 AM 14.0 °F 2.9 °F 5.0 °F 67% 29.88 in 2.0 mi WNW 8.1 mph 23.0 mph 0.00 in Snow Light Snow
6:45 AM 12.2 °F -3.1 °F 5.0 °F 73% 29.88 in 3.0 mi West 13.8 mph 26.5 mph 0.00 in Snow Light Snow
6:52 AM 12.9 °F -5.3 °F 3.9 °F 67% 29.92 in 4.0 mi West 20.7 mph 27.6 mph 0.00 in Snow Light Snow
7:23 AM 12.2 °F -1.8 °F 3.2 °F 67% 29.90 in 6.0 mi WNW 11.5 mph 25.3 mph 0.00 in   Haze
7:52 AM 12.9 °F -2.2 °F 3.0 °F 65% 29.96 in 3.0 mi WSW 13.8 mph 25.3 mph 0.00 in Snow Light Snow
8:52 AM 10.9 °F -4.7 °F 1.0 °F 64% 30.00 in 5.0 mi WSW 13.8 mph 24.2 mph 0.00 in   Haze
9:52 AM 12.0 °F -2.0 °F -0.0 °F 59% 30.04 in 6.0 mi West 11.5 mph 25.3 mph N/A   Haze
10:52 AM 12.0 °F -3.4 °F -0.0 °F 59% 30.07 in 7.0 mi NW 13.8 mph 24.2 mph N/A   Overcast
11:52 AM 12.9 °F -4.9 °F -0.0 °F 56% 30.09 in 7.0 mi West 19.6 mph 29.9 mph N/A   Overcast
12:34 PM 15.8 °F 0.9 °F -0.4 °F 49% 30.05 in 10.0 mi West 15.0 mph 24.2 mph N/A   Mostly Cloudy
12:52 PM 15.1 °F -1.1 °F -0.9 °F 49% 30.10 in 10.0 mi West 17.3 mph 24.2 mph N/A   Partly Cloudy
1:52 PM 18.0 °F 4.2 °F -2.9 °F 40% 30.11 in 10.0 mi WNW 13.8 mph 25.3 mph N/A   Clear
2:52 PM 19.9 °F 7.3 °F -4.0 °F 35% 30.12 in 10.0 mi West 12.7 mph 23.0 mph N/A   Clear
3:52 PM 19.9 °F 8.6 °F -4.0 °F 35% 30.14 in 10.0 mi West 10.4 mph - N/A   Clear
4:52 PM 18.0 °F 6.1 °F -4.0 °F 38% 30.17 in 10.0 mi SSW 10.4 mph - N/A   Clear
5:52 PM 16.0 °F 2.9 °F -4.0 °F 41% 30.21 in 10.0 mi WSW 11.5 mph 18.4 mph N/A   Clear
6:52 PM 15.1 °F 2.5 °F -6.0 °F 39% 30.25 in 10.0 mi SW 10.4 mph 17.3 mph N/A   Clear
7:52 PM 14.0 °F -0.2 °F -7.1 °F 39% 30.28 in 10.0 mi WSW 12.7 mph - N/A   Clear
8:52 PM 14.0 °F 0.5 °F -8.0 °F 37% 30.30 in 10.0 mi SW 11.5 mph 23.0 mph N/A   Clear
9:52 PM 14.0 °F 2.0 °F -9.9 °F 34% 30.32 in 10.0 mi West 9.2 mph 17.3 mph N/A   Clear
10:52 PM 12.9 °F -0.9 °F -7.1 °F 41% 30.33 in 10.0 mi West 11.5 mph 19.6 mph N/A   Clear
11:52 PM 10.9 °F 1.4 °F -7.1 °F 44% 30.35 in 10.0 mi West 5.8 mph - N/A   Clear